Temperature
15 15 15 15 14 14 14 14 14 14 13 13 13 13 13 13 13 13 13 12 12 12 12 12 12 12 12 12 12 12 12 12 12 11 11 11 11 10 11 10 10 10 10
15 15 14 14 14 14 14 14 14 13 13 13 13 13 13 13 13 13 12 12 12 12 12 12 12 12 12 12 12 11 11 11 11 11 11 11 10 10 10 10 10 10 9
15 14 14 14 14 14 13 13 13 13 13 13 13 13 13 12 12 12 12 12 12 12 12 11 11 11 11 11 11 11 11 11 11 11 11 11 10 10 10 10 10 10 9
14 14 14 14 13 13 13 13 13 13 13 12 12 12 12 12 12 12 12 12 12 12 12 11 11 11 11 11 11 11 11 11 11 11 11 11 10 10 10 10 9 9 9
14 14 13 13 13 13 13 13 12 12 12 12 12 12 12 12 12 12 12 12 12 11 11 11 11 11 11 11 11 11 11 11 11 10 10 10 10 10 10 10 9 9 9
14 13 13 13 13 13 12 12 12 12 12 12 12 12 12 12 12 12 11 11 11 11 11 11 11 11 11 11 11 11 11 10 10 10 10 10 10 10 10 9 9 9 9
13 13 13 13 12 12 12 12 12 12 12 11 11 11 11 11 11 11 11 11 11 11 11 10 10 11 10 10 10 10 10 10 10 10 10 10 10 10 10 9 9 9 9
13 13 13 13 12 12 12 12 11 11 11 11 11 11 11 11 11 11 11 11 10 10 10 10 10 10 10 10 10 10 10 10 10 10 9 9 9 9 9 9 9 9 8
13 13 12 12 12 12 11 11 11 11 11 11 11 11 10 10 10 10 10 10 10 10 10 10 10 10 10 10 9 9 9 9 10 10 9 9 9 9 9 9 9 8 8
12 12 12 11 11 11 11 11 11 11 11 11 10 10 10 10 10 10 10 10 9 9 10 10 10 10 9 9 9 9 9 9 9 9 9 9 9 9 9 9 8 8 8
12 11 11 11 11 11 10 10 10 10 10 10 10 10 10 10 10 10 9 9 9 9 9 9 9 10 9 9 9 9 9 9 8 8 8 8 8 8 8 8 8 8 8
11 11 11 11 10 10 10 10 10 9 9 9 9 9 9 9 9 9 9 9 9 8 9 9 9 9 9 9 9 9 8 8 8 8 8 8 8 8 8 8 8 8 8
11 11 10 10 10 10 10 10 9 9 9 9 9 9 9 9 9 9 9 9 9 8 8 8 8 9 9 8 8 8 8 8 8 7 8 8 8 8 8 8 7 7 7
10 10 10 10 10 10 9 9 9 9 8 8 8 8 8 8 8 8 8 8 8 8 8 8 8 8 8 8 8 8 8 8 7 7 7 7 7 7 7 7 7 7 7
10 9 9 9 9 9 9 9 9 8 8 8 8 8 8 8 8 8 8 8 8 7 7 7 7 7 7 7 7 7 7 7 7 7 7 7 7 7 7 7 6 6 6
9 9 9 9 9 8 8 8 8 8 8 8 8 8 7 8 8 8 8 7 7 7 7 6 6 7 7 7 7 7 7 7 7 7 7 6 6 6 6 6 6 6 6
9 8 8 8 8 8 8 8 8 8 7 7 7 7 7 7 7 7 7 7 7 7 6 6 6 6 6 6 6 6 6 6 6 6 6 6 6 6 6 6 5 5 5
8 8 8 8 7 7 7 7 7 7 7 7 7 7 7 7 7 7 7 6 6 6 6 6 6 6 6 5 6 6 6 6 6 6 6 6 6 5 5 5 5 5 5
7 7 7 7 7 7 7 6 6 6 6 6 6 6 6 6 6 6 6 6 6 6 5 5 5 5 5 5 5 5 5 5 5 5 5 5 5 5 5 5 5 5 4
6 6 6 6 6 6 6 6 6 6 6 6 6 6 6 6 6 6 6 5 5 5 5 5 5 5 5 5 5 4 4 4 4 4 4 4 4 4 4 4 4 4 4
6 6 6 6 6 5 5 5 5 5 5 5 5 5 5 5 5 5 5 5 5 5 5 5 4 4 4 4 4 4 4 4 4 4 4 4 4 4 4 4 4 4 4
5 5 5 5 5 5 5 5 5 5 5 5 5 5 5 4 4 4 4 5 4 4 4 4 4 4 4 4 3 3 3 3 3 3 3 3 3 3 3 3 3 3 3
5 5 5 5 4 4 4 4 4 4 4 4 4 4 4 4 4 4 4 4 4 4 4 4 4 4 3 3 3 3 3 3 3 3 3 3 3 3 3 3 3 2 3
4 4 4 4 4 4 4 4 4 4 4 3 3 3 3 3 3 3 3 3 3 3 3 3 3 3 3 3 3 3 3 3 3 3 3 3 3 3 2 2 2 2 2
4 4 4 3 3 3 3 3 3 3 3 3 3 3 3 3 3 3 3 3 3 3 3 3 3 3 2 2 2 2 2 2 2 2 2 2 2 2 2 2 2 2 2
3 3 3 3 3 3 2 2 2 2 2 2 2 2 2 2 2 2 2 2 2 2 2 2 2 2 2 2 2 2 2 2 2 2 2 2 2 2 2 2 2 1 1
Wind_Speed
6 5 5 5 4 4 4 4 3 3 3 4 5 4 5 5 5 5 5 5 6 5 5 5 5 4 4 4 4 4 4 4 4 3 3 3 4 4 3 4 4 4 4
5 5 5 5 5 5 4 4 4 3 3 4 4 4 4 5 5 5 6 6 6 6 6 6 6 4 5 4 4 5 4 5 5 4 4 4 5 4 4 4 4 4 4
5 5 5 5 5 5 5 4 4 4 4 4 4 4 4 5 5 5 6 6 6 6 6 6 6 6 6 4 5 5 4 4 4 5 4 3 4 4 4 4 5 4 4
5 5 5 5 5 5 4 4 4 4 3 3 4 4 5 5 5 5 6 6 6 6 6 6 6 6 6 5 5 5 4 4 5 5 4 4 4 4 4 4 4 4 4
5 5 5 5 5 4 4 4 4 4 4 4 4 4 4 4 4 4 5 6 6 6 6 6 6 5 3 4 4 4 5 4 4 4 4 4 4 4 5 5 5 4 5
6 5 5 4 4 4 4 4 4 4 4 4 4 4 4 3 2 3 5 5 6 6 6 6 6 6 6 6 5 5 5 6 5 5 5 6 6 6 5 5 5 5 4
5 5 5 5 4 4 4 4 4 4 4 4 4 5 5 4 3 4 5 6 6 6 6 6 5 5 7 7 8 8 7 7 6 7 7 7 6 5 6 7 6 6 5
5 5 5 5 5 4 4 4 5 4 4 5 5 5 5 4 3 4 5 7 6 6 6 7 6 6 6 7 7 8 8 8 8 8 8 7 6 5 6 7 6 6 5
5 5 5 5 4 4 5 5 5 4 5 5 5 5 5 5 3 4 5 6 6 6 6 6 7 7 4 5 7 8 8 7 7 9 8 6 5 4 5 4 5 5 5
5 5 5 5 5 5 5 5 4 4 4 4 5 5 6 6 3 4 6 5 6 6 5 6 6 6 4 6 8 8 8 8 6 6 7 7 7 7 9 8 6 6 5
4 4 4 5 5 5 4 4 4 4 4 4 5 5 6 6 4 4 6 6 6 6 6 6 5 5 6 8 9 8 8 7 7 7 6 6 6 6 7 8 8 7 7
4 4 4 4 4 4 4 4 4 4 5 5 5 5 5 5 5 5 6 8 7 7 6 6 4 4 7 8 7 7 6 6 6 6 6 6 6 6 6 7 8 9 8
4 4 4 4 4 4 5 5 4 4 5 5 5 5 5 4 4 5 7 8 8 7 6 5 5 5 7 7 8 8 7 6 6 6 7 7 6 6 5 5 6 7 7
4 4 4 4 4 4 4 4 4 4 5 5 5 5 5 4 4 4 4 5 7 8 7 6 6 7 7 6 6 7 6 6 6 7 7 6 5 5 5 5 5 5 5
5 4 4 4 4 4 4 4 5 5 4 5 5 5 5 5 4 4 4 5 5 5 5 5 5 5 5 5 5 5 5 6 7 6 6 6 5 5 5 5 5 5 6
5 5 4 4 4 4 4 4 3 5 4 5 6 7 6 5 4 4 5 6 6 5 5 6 6 6 6 6 6 6 6 6 6 6 6 6 6 6 6 5 5 6 7
5 5 4 4 5 5 5 5 5 4 5 6 7 7 7 7 6 6 6 6 6 6 6 7 7 7 7 6 6 6 7 7 6 6 7 7 6 6 6 6 6 6 7
5 5 5 4 5 5 5 6 6 6 5 5 5 7 7 7 6 6 5 5 5 5 6 7 7 7 7 7 7 7 7 6 6 6 7 7 7 7 7 7 7 7 7
5 4 4 5 5 5 5 6 6 6 6 6 5 5 6 7 7 6 5 5 6 6 6 6 7 6 6 7 7 6 7 6 6 6 6 7 7 7 7 7 7 8 8
4 5 5 5 5 5 6 6 6 6 6 6 6 5 4 3 4 4 5 5 6 6 6 6 6 7 7 6 6 6 6 6 7 7 7 6 7 7 8 8 7 7 7
4 5 5 5 5 6 6 6 6 6 6 6 6 5 4 5 6 6 5 5 6 6 6 6 6 6 6 6 6 6 7 7 7 7 7 7 7 7 7 7 8 8 7
4 4 5 5 5 6 6 6 6 6 7 7 6 5 6 6 6 6 6 6 6 6 6 6 6 6 6 6 6 6 7 7 7 7 7 7 7 7 7 7 7 7 7
4 4 4 5 5 5 5 6 6 6 6 6 6 6 6 6 6 6 6 6 5 5 5 5 6 6 6 6 6 7 7 7 7 7 7 7 7 7 7 8 9 8 8
4 4 4 4 4 4 5 5 6 6 6 6 6 6 6 6 6 6 6 6 6 6 5 6 6 8 9 7 6 7 7 7 8 7 9 8 8 8 8 8 8 9 9
3 3 4 4 4 4 5 5 6 6 6 6 6 6 6 6 6 6 6 6 6 6 7 6 6 7 9 10 8 8 7 8 9 8 8 7 8 9 8 8 8 8 8
3 4 4 4 4 5 5 5 6 6 6 6 6 6 6 6 7 7 6 6 6 6 7 6 7 8 9 8 9 9 8 8 9 10 8 7 8 8 8 7 9 8 8
Wind_Direction
218 219 216 216 218 221 227 231 232 225 226 229 230 230 223 217 217 216 224 221 225 223 224 228 228 228 232 225 226 233 239 243 242 237 223 213 208 219 199 223 229 228 207
217 219 217 213 211 215 221 224 226 226 229 235 231 227 227 224 219 217 221 222 225 227 227 229 230 224 234 234 227 228 230 237 239 237 219 215 221 224 218 223 230 234 239
209 211 211 209 210 213 221 221 220 222 227 232 230 229 230 231 226 223 222 224 227 231 232 232 231 226 229 229 232 234 231 233 239 233 227 214 224 219 224 231 235 236 243
200 204 207 211 213 215 219 220 222 223 229 233 233 233 232 232 231 231 230 229 231 233 236 236 236 234 234 229 228 232 231 228 227 231 230 218 218 215 226 230 233 229 240
202 208 212 216 214 217 218 222 225 225 236 241 240 238 235 230 231 238 235 233 234 233 233 233 233 240 259 243 235 230 226 232 230 230 231 227 221 215 229 230 239 240 237
205 210 210 214 210 214 219 224 227 227 233 235 240 242 240 232 216 240 254 240 237 235 236 236 230 223 225 226 236 240 238 235 233 233 234 236 236 230 231 232 235 238 245
206 210 210 210 211 217 220 222 225 225 227 235 238 242 243 236 202 215 237 249 243 243 242 239 234 231 224 228 219 217 228 241 247 250 249 249 250 238 227 230 234 240 252
207 211 211 212 215 218 220 226 233 234 228 236 240 244 250 243 208 220 226 240 245 245 245 244 241 241 230 234 229 225 229 225 229 242 256 261 260 254 236 237 244 243 256
209 213 212 212 216 217 223 230 235 236 234 235 240 244 246 246 221 229 233 239 245 245 246 244 244 245 219 223 236 236 238 236 222 234 261 281 291 262 242 235 231 232 251
219 220 217 216 219 223 229 233 233 236 240 243 242 243 246 252 235 231 240 240 244 245 245 244 238 247 224 208 233 241 243 243 235 231 240 248 248 230 217 228 231 235 247
226 223 221 221 225 227 231 233 232 235 244 249 249 248 249 253 234 221 234 244 248 247 245 245 242 218 231 223 233 244 248 253 243 238 238 241 239 232 225 229 232 235 240
222 225 228 229 229 224 225 232 237 239 245 250 253 256 255 250 247 233 229 242 264 253 254 254 248 208 226 233 237 250 253 245 246 243 241 239 238 236 233 231 234 237 243
217 223 230 234 233 232 229 231 236 239 245 251 252 256 260 259 244 226 233 239 246 252 261 275 269 238 231 231 233 236 235 238 239 239 242 244 246 247 241 236 237 238 245
232 238 237 238 240 240 241 240 242 246 250 254 255 258 261 257 258 256 250 246 234 243 258 257 240 233 236 247 239 230 232 236 237 239 242 244 245 242 239 233 233 231 238
240 245 247 246 247 247 244 245 246 250 259 260 259 261 261 259 268 289 271 263 262 258 260 255 252 246 241 239 241 240 236 235 237 241 243 241 238 236 237 233 232 233 240
249 249 248 247 246 245 247 254 252 248 259 262 271 274 267 268 288 273 269 269 267 264 256 248 247 246 245 245 244 244 242 240 239 239 239 238 238 236 236 235 233 234 239
255 257 256 253 251 249 247 248 257 253 239 239 245 256 261 273 274 268 264 260 251 238 240 244 246 248 249 249 248 247 248 247 244 241 241 241 241 240 235 234 235 237 241
263 262 260 258 257 256 255 255 255 259 263 261 239 232 243 256 265 266 262 255 246 233 242 247 250 250 252 252 253 253 253 250 245 244 243 242 239 238 236 233 232 234 238
264 261 262 264 261 261 260 258 259 262 264 267 268 248 232 244 247 246 235 243 246 247 247 250 253 255 255 256 255 255 253 250 248 246 247 246 243 240 241 240 239 237 237
265 262 265 266 264 263 261 259 259 262 266 268 268 272 269 260 262 251 238 244 249 253 255 256 256 254 254 255 257 257 255 252 251 251 250 248 246 243 244 244 243 242 240
274 268 261 265 265 264 263 262 260 261 263 266 267 271 278 266 262 259 254 250 250 255 257 258 257 255 252 254 254 253 256 259 254 251 250 250 249 247 246 247 245 244 246
273 270 267 267 267 266 266 264 262 262 263 266 269 264 247 256 263 265 263 263 263 263 264 264 262 258 253 251 251 253 255 257 259 256 252 249 248 247 246 245 245 244 243
271 272 274 274 273 273 271 271 270 269 269 269 269 266 261 261 265 266 268 270 271 270 271 268 267 265 261 256 251 251 253 256 258 257 254 252 248 245 244 243 243 245 243
273 273 275 275 273 270 271 276 277 275 273 271 270 267 266 265 267 268 270 272 269 268 269 269 266 265 264 262 260 259 258 263 267 262 256 255 251 247 244 243 243 243 244
273 273 277 280 281 281 282 281 281 280 279 277 275 273 270 269 269 268 267 267 268 266 269 271 269 267 267 264 262 262 268 270 269 268 263 257 254 249 244 243 242 244 243
280 281 285 286 285 284 282 281 282 282 280 280 280 280 279 276 274 272 270 268 269 269 270 269 268 269 272 269 268 270 268 263 264 265 264 258 255 251 246 242 241 239 243
Height
1534 1535 1536 1537 1537 1538 1538 1538 1538 1538 1538 1538 1538 1538 1539 1539 1539 1539 1539 1540 1540 1540 1540 1540 1540 1540 1540 1540 1540 1540 1541 1541 1541 1541 1540 1540 1539 1539 1538 1538 1538 1538 1537
1531 1532 1533 1534 1534 1534 1535 1535 1535 1535 1535 1535 1535 1535 1535 1536 1536 1536 1536 1537 1537 1537 1537 1537 1537 1537 1537 1537 1537 1537 1538 1538 1538 1538 1538 1537 1537 1537 1536 1535 1535 1535 1535
1528 1529 1530 1531 1531 1531 1532 1532 1532 1532 1532 1532 1532 1532 1532 1532 1533 1533 1533 1533 1534 1534 1534 1534 1534 1534 1534 1534 1534 1534 1534 1535 1535 1535 1535 1534 1534 1534 1533 1533 1533 1532 1532
1525 1526 1526 1527 1528 1528 1528 1529 1529 1529 1529 1529 1529 1529 1529 1529 1529 1529 1530 1530 1530 1530 1530 1530 1531 1531 1531 1531 1531 1531 1531 1531 1531 1532 1531 1531 1531 1530 1530 1530 1530 1529 1529
1521 1522 1523 1524 1524 1525 1525 1525 1526 1526 1526 1526 1526 1526 1526 1526 1526 1526 1526 1526 1527 1527 1527 1527 1527 1527 1527 1527 1528 1528 1528 1528 1528 1528 1528 1528 1527 1527 1527 1527 1527 1526 1525
1518 1519 1520 1521 1521 1521 1522 1522 1522 1522 1522 1523 1523 1523 1523 1522 1522 1522 1522 1523 1523 1523 1523 1523 1523 1523 1523 1523 1524 1524 1524 1525 1525 1525 1525 1524 1524 1524 1524 1523 1523 1523 1522
1515 1516 1516 1517 1517 1518 1518 1519 1519 1519 1519 1519 1519 1519 1519 1519 1519 1519 1519 1519 1519 1519 1520 1520 1519 1519 1519 1520 1520 1520 1520 1520 1521 1521 1521 1521 1521 1520 1520 1520 1519 1519 1519
1512 1513 1513 1513 1514 1515 1515 1515 1516 1516 1516 1515 1515 1515 1515 1515 1515 1515 1515 1516 1516 1516 1516 1516 1516 1516 1516 1516 1516 1516 1516 1516 1516 1517 1517 1517 1517 1516 1516 1516 1516 1515 1515
1508 1509 1510 1510 1511 1511 1511 1512 1512 1512 1512 1512 1512 1511 1511 1511 1511 1511 1511 1512 1512 1512 1512 1512 1512 1512 1511 1512 1512 1512 1512 1511 1512 1512 1512 1511 1511 1511 1511 1511 1511 1511 1510
1505 1506 1507 1507 1507 1508 1508 1508 1509 1509 1508 1508 1508 1507 1507 1507 1507 1507 1507 1508 1507 1507 1507 1507 1507 1507 1507 1507 1507 1508 1507 1507 1507 1507 1507 1507 1507 1506 1506 1507 1506 1506 1506
1502 1503 1503 1504 1504 1504 1505 1505 1505 1505 1505 1504 1504 1503 1503 1503 1502 1502 1502 1503 1503 1503 1502 1502 1502 1502 1502 1502 1502 1503 1502 1503 1503 1502 1502 1502 1502 1501 1501 1501 1501 1501 1501
1499 1499 1499 1500 1500 1500 1501 1501 1501 1501 1501 1500 1500 1499 1499 1498 1498 1497 1497 1498 1498 1498 1498 1498 1497 1497 1497 1497 1497 1497 1498 1498 1497 1497 1497 1497 1496 1496 1496 1496 1496 1496 1496
1495 1495 1495 1496 1496 1497 1497 1497 1497 1496 1496 1496 1496 1495 1494 1494 1493 1493 1493 1493 1493 1493 1493 1493 1492 1492 1492 1492 1492 1492 1492 1492 1492 1492 1491 1491 1491 1491 1491 1491 1490 1490 1490
1491 1491 1492 1492 1492 1492 1492 1492 1492 1492 1492 1492 1491 1490 1490 1489 1489 1489 1488 1488 1488 1488 1488 1487 1487 1487 1487 1487 1487 1487 1486 1486 1486 1486 1485 1486 1486 1486 1485 1485 1485 1485 1485
1488 1488 1488 1488 1488 1488 1488 1487 1487 1487 1487 1487 1487 1486 1485 1484 1484 1484 1483 1483 1482 1482 1482 1482 1482 1482 1481 1481 1481 1481 1481 1480 1480 1480 1480 1480 1480 1480 1479 1479 1479 1479 1479
1484 1483 1483 1483 1483 1483 1482 1482 1482 1482 1481 1481 1481 1481 1480 1480 1479 1478 1478 1478 1477 1477 1477 1477 1476 1476 1476 1475 1475 1475 1475 1475 1474 1475 1474 1474 1474 1474 1474 1474 1474 1474 1474
1479 1479 1479 1479 1478 1478 1478 1477 1477 1476 1476 1475 1475 1475 1475 1474 1474 1473 1473 1473 1472 1472 1471 1471 1471 1470 1470 1470 1470 1469 1469 1469 1469 1469 1469 1468 1468 1468 1468 1468 1468 1468 1467
1475 1475 1474 1474 1474 1474 1473 1473 1472 1471 1471 1470 1470 1469 1469 1469 1468 1468 1468 1468 1467 1466 1466 1465 1465 1465 1464 1464 1464 1464 1463 1463 1463 1463 1463 1463 1462 1462 1462 1462 1462 1462 1462
1471 1471 1470 1470 1469 1469 1469 1468 1467 1467 1466 1466 1465 1464 1464 1463 1463 1463 1462 1462 1461 1461 1460 1459 1459 1459 1458 1458 1458 1457 1457 1457 1457 1457 1457 1457 1456 1456 1456 1456 1456 1456 1456
1467 1466 1466 1466 1465 1464 1464 1463 1462 1462 1461 1461 1460 1460 1459 1458 1458 1457 1457 1456 1456 1455 1454 1454 1453 1453 1453 1452 1452 1451 1451 1451 1451 1451 1451 1451 1450 1450 1450 1450 1450 1450 1450
1463 1462 1462 1462 1461 1460 1460 1459 1458 1457 1457 1456 1455 1455 1454 1453 1452 1452 1451 1451 1450 1450 1449 1448 1447 1447 1447 1446 1446 1446 1445 1445 1445 1445 1445 1444 1444 1444 1444 1444 1444 1444 1444
1459 1459 1458 1457 1457 1456 1455 1454 1454 1453 1452 1451 1450 1449 1448 1448 1447 1447 1446 1446 1445 1444 1444 1443 1442 1441 1441 1440 1440 1439 1439 1439 1439 1439 1438 1438 1438 1438 1438 1438 1438 1438 1438
1456 1455 1454 1453 1453 1452 1451 1450 1449 1448 1447 1446 1445 1444 1444 1443 1442 1441 1441 1440 1439 1439 1438 1437 1436 1435 1435 1435 1434 1434 1433 1433 1433 1433 1432 1432 1432 1432 1432 1432 1432 1432 1432
1451 1451 1450 1449 1448 1447 1447 1446 1444 1443 1442 1441 1440 1439 1439 1438 1437 1436 1435 1435 1434 1433 1432 1431 1430 1430 1429 1428 1428 1427 1427 1427 1427 1426 1426 1426 1426 1425 1426 1426 1426 1426 1426
1448 1447 1446 1445 1444 1443 1442 1441 1440 1439 1438 1437 1436 1435 1434 1433 1432 1431 1430 1429 1428 1427 1426 1425 1424 1424 1423 1422 1422 1421 1421 1421 1420 1420 1420 1419 1419 1419 1419 1419 1419 1420 1420
1443 1442 1442 1441 1440 1439 1438 1437 1436 1434 1433 1432 1431 1430 1429 1428 1426 1425 1424 1424 1423 1422 1421 1420 1419 1418 1417 1416 1416 1415 1415 1414 1414 1414 1413 1413 1412 1412 1412 1413 1413 1413 1414